Location: The Jewett Observatory
(46.7288°N, 117.1525°W)
Time: 14:31:37
(UTC-07:00)

Cosmos 1633 - Visible Passes

Search period start: 21 August 2017 00:00
Search period end: 31 August 2017 00:00
Orbit: 471 x 488 km, 82.5° (Epoch: 21 August)

Date Brightness Start Highest point End Pass type
(mag) Time Alt. Az. Time Alt. Az. Time Alt. Az.
21 Aug 5.9 21:23:00 10° W 21:24:48 13° WNW 21:26:37 10° NW visible
22 Aug 5.6 20:55:40 10° WSW 20:58:25 20° WNW 21:01:13 10° NNW visible
23 Aug 4.7 20:28:49 10° SW 20:32:05 31° WNW 20:35:24 10° N visible
26 Aug 6.1 05:24:28 10° NNE 05:26:52 16° ENE 05:29:16 10° ESE visible
26 Aug 6.3 20:47:12 10° W 20:48:43 12° WNW 20:50:17 10° NW visible
27 Aug 6.7 04:59:37 10° NE 05:00:27 11° ENE 05:01:17 10° ENE visible
27 Aug 5.9 20:19:41 10° WSW 20:22:19 19° WNW 20:24:59 10° NNW visible
30 Aug 5.1 05:13:54 10° NNE 05:17:06 27° ENE 05:20:16 10° SE visible
